MONITOR-2 (RS39S)

Last updated on Fri Jul 11 2025 00:03:04 GMT+0000 (Coordinated Universal Time)

1 57184U 23091U 25191.59468831 .00002514 00000+0 13958-3 0 9992 2 57184 97.5593 247.0551 0011546 211.0620 148.9930 15.14608389112179
UTC large
Height (km)
Speed (km/s)
/
Latitude / Longitude
Inclination (degrees)
Orbital Period (minutes)
Azimuth
Elevation
Range (km)
Doppler Factor

Next 0 passes for location: London (51.5072 / 0.1276)

Sorry there are no passes over London.